Location: Eaton Estates
(41.3089°N, 82.0057°W)
Time: 08:29:40
(UTC+00:00)

Cosmos 1408 - Pass Details

Date: 17 June 2021
Orbit: 466 x 492 km, 82.6° (Epoch: 27 July)

Event Time Altitude Azimuth Distance (km) Brightness Sun altitude
Exits shadow 06:20:03 53° 39° (NE) 608 3.2 -24.2°
Drops below altitude 10° 06:23:02 10° 13° (NNE) 1,686 6.4 -24.1°
Sets 06:25:10 0° 11° (N) 2,576 7.7 -24.0°
